COSMOS 565

Satellite information

Favourite Embed

Satellite Type and Status

PAYLOADIN ORBIT

Key statistics

Satellite COSMOS 565 at a glance.

Uptime

18962

Days in orbit

Revolutions

≈ 12.5

Per day

Orbit

LEO

Low Earth Orbit

Inclination

74.0

Latest

Satellite identification and parameters

Extended collection of information and parameters for COSMOS 565.

Object identification

Identified? True

Debris? False

Object name: COSMOS 565

International designator: 1973-037B

Object number (NORAD): 6676

Object ID (CCSDS): 6676

Country: COMMONWEALTH OF INDEPENDENT STATES (CIS)

Current information (Y/N): Y

RCS size: MEDIUM

Orbital parameters

Period: 115.296 minutes

Inclination: 74.0181 deg

SMA: 7846.972 km

Apoapsis: 1489.177 km

Periapsis: 1448.497 km

RAAN: 183.715 deg

Eccentricy: 0.0025921

Argument of periapsis: 180.4609 deg

Mean anomaly: 354.0651 deg

Mean motion: 12.48963123 rev/day

Mean motion (dot): -0.00000005 rev/day2

B* drag term: 0.00007275 1/REarth

Two-line elements (TLE)

Creation date: May 8, 2025, 3:01 a.m.

Reference frame: TEME

Reference center: EARTH

Epoch: May 7, 2025, 9:08 p.m. UTC

TLE line 0: 0 COSMOS 565

TLE line 1: 1 06676U 73037B 25127.88123376 -.00000005 00000-0 72750-4 0 9991

TLE line 2: 2 06676 74.0181 183.7150 0025921 180.4609 354.0651 12.48963123366907

Live tracking on map

Real-time ground track for satellite COSMOS 565.

In-orbit conjunctions

There are no conjunctions computed for COSMOS 565, at the moment. Check back to stay up to date, as we update our databases every day.

Go to all conjunctions

Associated space launch

Military communications satellites

COSMOS 565 was lifted into orbit during the mission ‘Kosmos-3M | Strela-1M 41-48’, on board a Kosmos-3M space rocket.

The launch took place on June 8, 1973, 3:50 p.m. from 132/1 (132L).

For more information about the launch, click the button.

Launch to space Kosmos-3M | Strela-1M 41-48
Kosmos-3M | Strela-1M 41-48

Agency: N/A

Status: Launch Successful

Launch date: June 8, 1973, 3:50 p.m. UTC

Rocket: Kosmos-3M

Launch pad: 132/1 (132L)

Location: Plesetsk Cosmodrome, Russian Federation

...

Latest news about this satellite

There are no fresh news available about this satellite. Check back as we update our databases every day.


Newsletter sign-up

Weekly statistics, charts and insights to help you stay on top of the space industry.